Time,TemperatureF,DewpointF,PressureIn,WindDirection,WindDirectionDegrees,WindSpeedMPH,WindSpeedGustMPH,Humidity,HourlyPrecipIn,Conditions,Clouds,dailyrainin,SoftwareType,DateUTC
2013-03-26 00:03:00,37.0,32.0,29.53,NNW,343,3.0,6.0,81,0.00,,,0.00,,2013-03-26 04:03:00,
2013-03-26 00:12:00,37.0,32.0,29.53,NNW,343,3.0,6.0,81,0.00,,,0.00,,2013-03-26 04:12:00,
2013-03-26 00:23:00,37.0,32.0,29.53,North,349,4.0,8.0,81,0.00,,,0.00,,2013-03-26 04:23:00,
2013-03-26 00:33:00,37.0,31.0,29.53,North,9,4.0,10.0,80,0.00,,,0.00,,2013-03-26 04:33:00,
2013-03-26 00:43:00,37.0,31.0,29.53,North,9,4.0,10.0,80,0.00,,,0.00,,2013-03-26 04:43:00,
2013-03-26 00:53:00,37.0,31.0,29.52,NNE,13,5.0,7.0,80,0.00,,,0.00,,2013-03-26 04:53:00,
2013-03-26 01:02:00,37.0,31.0,29.53,NNW,342,5.0,9.0,78,0.00,,,0.00,,2013-03-26 05:02:00,
2013-03-26 01:12:00,37.0,31.0,29.53,NNW,342,5.0,9.0,78,0.00,,,0.00,,2013-03-26 05:12:00,
2013-03-26 01:22:00,37.0,30.0,29.54,East,88,4.0,12.0,76,0.00,,,0.00,,2013-03-26 05:22:00,
2013-03-26 01:32:00,35.0,31.0,29.54,NNW,333,6.0,9.0,86,0.00,,,0.00,,2013-03-26 05:32:00,
2013-03-26 01:42:00,35.0,31.0,29.54,NNW,333,6.0,9.0,86,0.00,,,0.00,,2013-03-26 05:42:00,
2013-03-26 01:52:00,35.0,32.0,29.53,NW,321,4.0,8.0,90,0.00,,,0.00,,2013-03-26 05:52:00,
2013-03-26 02:02:00,35.0,33.0,29.54,NE,34,2.0,8.0,91,0.00,,,0.00,,2013-03-26 06:02:00,
2013-03-26 02:12:00,35.0,33.0,29.54,NE,34,2.0,8.0,91,0.00,,,0.00,,2013-03-26 06:12:00,
2013-03-26 02:22:00,35.0,33.0,29.53,NNW,345,4.0,8.0,92,0.00,,,0.00,,2013-03-26 06:22:00,
2013-03-26 02:32:00,35.0,33.0,29.53,NNW,332,4.0,8.0,92,0.00,,,0.00,,2013-03-26 06:32:00,
2013-03-26 02:42:00,35.0,33.0,29.53,NNW,332,4.0,8.0,92,0.00,,,0.00,,2013-03-26 06:42:00,
2013-03-26 02:52:00,35.0,32.0,29.54,NNW,340,4.0,7.0,89,0.00,,,0.00,,2013-03-26 06:52:00,
2013-03-26 03:02:00,36.0,33.0,29.54,North,354,5.0,8.0,88,0.00,,,0.00,,2013-03-26 07:02:00,
2013-03-26 03:12:00,36.0,33.0,29.54,North,354,5.0,8.0,88,0.00,,,0.00,,2013-03-26 07:12:00,
2013-03-26 03:22:00,35.0,31.0,29.54,NNW,347,3.0,6.0,85,0.00,,,0.00,,2013-03-26 07:22:00,
2013-03-26 03:33:00,35.0,30.0,29.54,NNW,340,4.0,7.0,83,0.00,,,0.00,,2013-03-26 07:33:00,
2013-03-26 03:42:00,35.0,30.0,29.54,NNW,340,4.0,7.0,83,0.00,,,0.00,,2013-03-26 07:42:00,
2013-03-26 03:53:00,35.0,29.0,29.54,NNW,329,4.0,9.0,78,0.00,,,0.00,,2013-03-26 07:53:00,
2013-03-26 04:02:00,35.0,28.0,29.54,NNW,336,5.0,9.0,76,0.00,,,0.00,,2013-03-26 08:02:00,
2013-03-26 04:12:00,35.0,28.0,29.54,NNW,336,5.0,9.0,76,0.00,,,0.00,,2013-03-26 08:12:00,
2013-03-26 04:22:00,35.0,28.0,29.54,NNE,29,4.0,5.0,76,0.00,,,0.00,,2013-03-26 08:22:00,
2013-03-26 04:32:00,35.0,28.0,29.54,North,6,2.0,5.0,76,0.00,,,0.00,,2013-03-26 08:32:00,
2013-03-26 04:42:00,35.0,28.0,29.54,North,6,2.0,5.0,76,0.00,,,0.00,,2013-03-26 08:42:00,
2013-03-26 04:52:00,34.0,27.0,29.55,North,357,2.0,3.0,76,0.00,,,0.00,,2013-03-26 08:52:00,
2013-03-26 05:02:00,34.0,27.0,29.56,NNW,336,3.0,5.0,76,0.00,,,0.00,,2013-03-26 09:02:00,
2013-03-26 05:12:00,34.0,27.0,29.56,NNW,336,3.0,5.0,76,0.00,,,0.00,,2013-03-26 09:12:00,
2013-03-26 05:22:00,34.0,28.0,29.56,NW,313,1.0,4.0,77,0.00,,,0.00,,2013-03-26 09:22:00,
2013-03-26 05:33:00,33.0,27.0,29.57,NW,321,2.0,5.0,77,0.00,,,0.00,,2013-03-26 09:33:00,
2013-03-26 05:43:00,33.0,27.0,29.57,NW,321,2.0,5.0,77,0.00,,,0.00,,2013-03-26 09:43:00,
2013-03-26 05:52:00,33.0,27.0,29.57,NNW,337,2.0,5.0,77,0.00,,,0.00,,2013-03-26 09:52:00,
2013-03-26 06:03:00,33.0,27.0,29.58,North,351,1.0,3.0,78,0.00,,,0.00,,2013-03-26 10:03:00,
2013-03-26 06:12:00,33.0,27.0,29.58,North,351,1.0,3.0,78,0.00,,,0.00,,2013-03-26 10:12:00,
2013-03-26 06:22:00,32.0,26.0,29.59,NW,308,2.0,5.0,79,0.00,,,0.00,,2013-03-26 10:22:00,
2013-03-26 06:32:00,32.0,26.0,29.59,WNW,295,2.0,6.0,79,0.00,,,0.00,,2013-03-26 10:32:00,
2013-03-26 06:42:00,32.0,26.0,29.59,WNW,295,2.0,6.0,79,0.00,,,0.00,,2013-03-26 10:42:00,
2013-03-26 06:53:00,32.0,27.0,29.60,NNW,330,2.0,5.0,80,0.00,,,0.00,,2013-03-26 10:53:00,
2013-03-26 07:03:00,32.0,27.0,29.60,NW,304,2.0,6.0,80,0.00,,,0.00,,2013-03-26 11:03:00,
2013-03-26 07:12:00,32.0,27.0,29.60,NW,304,2.0,6.0,80,0.00,,,0.00,,2013-03-26 11:12:00,
2013-03-26 07:22:00,32.0,27.0,29.61,NNW,332,2.0,6.0,80,0.00,,,0.00,,2013-03-26 11:22:00,
2013-03-26 07:32:00,33.0,27.0,29.62,NNW,340,3.0,5.0,78,0.00,,,0.00,,2013-03-26 11:32:00,
2013-03-26 07:42:00,33.0,27.0,29.62,NNW,340,3.0,5.0,78,0.00,,,0.00,,2013-03-26 11:42:00,
2013-03-26 07:52:00,34.0,28.0,29.62,NNE,21,3.0,6.0,77,0.00,,,0.00,,2013-03-26 11:52:00,
2013-03-26 08:03:00,34.0,28.0,29.62,NNE,21,3.0,6.0,77,0.00,,,0.00,,2013-03-26 12:03:00,
2013-03-26 08:12:00,35.0,27.0,29.62,WNW,301,3.0,7.0,73,0.00,,,0.00,,2013-03-26 12:12:00,
2013-03-26 08:22:00,35.0,26.0,29.63,NW,321,6.0,11.0,70,0.00,,,0.00,,2013-03-26 12:22:00,
2013-03-26 08:32:00,36.0,26.0,29.63,NW,313,5.0,13.0,68,0.00,,,0.00,,2013-03-26 12:32:00,
2013-03-26 08:42:00,36.0,26.0,29.63,NW,313,5.0,13.0,68,0.00,,,0.00,,2013-03-26 12:42:00,
2013-03-26 08:52:00,37.0,26.0,29.64,NNW,335,5.0,11.0,65,0.00,,,0.00,,2013-03-26 12:52:00,
2013-03-26 09:03:00,37.0,26.0,29.64,NNW,337,7.0,13.0,64,0.00,,,0.00,,2013-03-26 13:03:00,
2013-03-26 09:12:00,37.0,26.0,29.64,NNW,337,7.0,13.0,64,0.00,,,0.00,,2013-03-26 13:12:00,
2013-03-26 09:22:00,38.0,25.0,29.64,North,349,6.0,10.0,60,0.00,,,0.00,,2013-03-26 13:22:00,
2013-03-26 09:32:00,38.0,25.0,29.64,NW,326,4.0,10.0,59,0.00,,,0.00,,2013-03-26 13:32:00,
2013-03-26 09:42:00,38.0,25.0,29.64,NW,326,4.0,10.0,59,0.00,,,0.00,,2013-03-26 13:42:00,
2013-03-26 09:52:00,39.0,25.0,29.65,NW,321,5.0,10.0,58,0.00,,,0.00,,2013-03-26 13:52:00,
2013-03-26 10:02:00,39.0,24.0,29.65,ENE,64,8.0,13.0,54,0.00,,,0.00,,2013-03-26 14:02:00,
2013-03-26 10:12:00,39.0,24.0,29.65,ENE,64,8.0,13.0,54,0.00,,,0.00,,2013-03-26 14:12:00,
2013-03-26 10:22:00,40.0,24.0,29.65,NNW,345,8.0,13.0,52,0.00,,,0.00,,2013-03-26 14:22:00,
2013-03-26 10:33:00,40.0,24.0,29.65,NNW,347,4.0,12.0,53,0.00,,,0.00,,2013-03-26 14:33:00,
2013-03-26 10:42:00,40.0,24.0,29.65,NNW,347,4.0,12.0,53,0.00,,,0.00,,2013-03-26 14:42:00,
2013-03-26 10:52:00,41.0,24.0,29.65,NNW,345,7.0,13.0,51,0.00,,,0.00,,2013-03-26 14:52:00,
2013-03-26 11:02:00,41.0,22.0,29.65,NNW,347,6.0,11.0,47,0.00,,,0.00,,2013-03-26 15:02:00,
2013-03-26 11:12:00,41.0,22.0,29.65,NNW,347,6.0,11.0,47,0.00,,,0.00,,2013-03-26 15:12:00,
2013-03-26 11:22:00,42.0,23.0,29.66,North,349,5.0,11.0,47,0.00,,,0.00,,2013-03-26 15:22:00,
2013-03-26 11:33:00,42.0,23.0,29.66,NNW,343,3.0,10.0,46,0.00,,,0.00,,2013-03-26 15:33:00,
2013-03-26 11:43:00,42.0,23.0,29.66,NNW,343,3.0,10.0,46,0.00,,,0.00,,2013-03-26 15:43:00,
2013-03-26 11:53:00,43.0,23.0,29.66,NNW,345,6.0,11.0,44,0.00,,,0.00,,2013-03-26 15:53:00,
2013-03-26 12:03:00,43.0,23.0,29.66,NNE,18,8.0,14.0,44,0.01,,,0.01,,2013-03-26 16:03:00,
2013-03-26 12:13:00,43.0,23.0,29.66,NNE,18,8.0,14.0,44,0.01,,,0.01,,2013-03-26 16:13:00,
2013-03-26 12:22:00,44.0,22.0,29.66,WNW,298,4.0,9.0,42,0.01,,,0.01,,2013-03-26 16:22:00,
2013-03-26 12:32:00,44.0,22.0,29.66,SW,233,6.0,11.0,42,0.01,,,0.01,,2013-03-26 16:32:00,
2013-03-26 12:42:00,44.0,22.0,29.66,SW,233,6.0,11.0,42,0.01,,,0.01,,2013-03-26 16:42:00,
2013-03-26 12:54:00,44.0,21.0,29.66,NNW,330,6.0,14.0,40,0.01,,,0.01,,2013-03-26 16:54:00,
2013-03-26 13:02:00,45.0,22.0,29.66,NNW,333,3.0,9.0,40,0.00,,,0.01,,2013-03-26 17:02:00,
2013-03-26 13:12:00,45.0,22.0,29.66,NNW,333,3.0,9.0,40,0.00,,,0.01,,2013-03-26 17:12:00,
2013-03-26 13:23:00,46.0,22.0,29.66,NW,313,3.0,7.0,39,0.00,,,0.01,,2013-03-26 17:23:00,
2013-03-26 13:32:00,46.0,22.0,29.65,NNW,339,2.0,7.0,38,0.00,,,0.01,,2013-03-26 17:32:00,
2013-03-26 13:42:00,46.0,22.0,29.65,NNW,339,2.0,7.0,38,0.00,,,0.01,,2013-03-26 17:42:00,
2013-03-26 13:53:00,46.0,21.0,29.65,NW,315,6.0,12.0,36,0.00,,,0.01,,2013-03-26 17:53:00,
2013-03-26 14:02:00,48.0,22.0,29.65,NW,313,2.0,8.0,35,0.00,,,0.01,,2013-03-26 18:02:00,
2013-03-26 14:12:00,48.0,22.0,29.65,NW,313,2.0,8.0,35,0.00,,,0.01,,2013-03-26 18:12:00,
2013-03-26 14:23:00,48.0,20.0,29.65,WNW,291,8.0,14.0,33,0.00,,,0.01,,2013-03-26 18:23:00,
2013-03-26 14:34:00,48.0,20.0,29.65,NW,325,6.0,11.0,33,0.00,,,0.01,,2013-03-26 18:34:00,
2013-03-26 14:42:00,48.0,20.0,29.65,NW,325,6.0,11.0,33,0.00,,,0.01,,2013-03-26 18:42:00,
2013-03-26 14:52:00,48.0,21.0,29.65,NNW,341,4.0,8.0,34,0.00,,,0.01,,2013-03-26 18:52:00,
2013-03-26 15:03:00,48.0,22.0,29.65,NNW,347,4.0,10.0,35,0.00,,,0.01,,2013-03-26 19:03:00,
2013-03-26 15:12:00,48.0,22.0,29.65,NNW,347,4.0,10.0,35,0.00,,,0.01,,2013-03-26 19:12:00,
2013-03-26 15:22:00,49.0,22.0,29.65,NW,321,7.0,10.0,34,0.00,,,0.01,,2013-03-26 19:22:00,
2013-03-26 15:32:00,49.0,22.0,29.65,NW,325,3.0,10.0,34,0.00,,,0.01,,2013-03-26 19:32:00,
2013-03-26 15:42:00,49.0,22.0,29.65,NW,325,3.0,10.0,34,0.00,,,0.01,,2013-03-26 19:42:00,
2013-03-26 15:53:00,49.0,22.0,29.64,SW,235,3.0,10.0,34,0.00,,,0.01,,2013-03-26 19:53:00,
2013-03-26 16:02:00,49.0,20.0,29.65,NNW,335,6.0,9.0,31,0.00,,,0.01,,2013-03-26 20:02:00,
2013-03-26 16:13:00,49.0,20.0,29.65,NNW,335,6.0,9.0,31,0.00,,,0.01,,2013-03-26 20:13:00,
2013-03-26 16:22:00,49.0,21.0,29.65,West,278,4.0,9.0,33,0.00,,,0.01,,2013-03-26 20:22:00,
2013-03-26 16:32:00,49.0,22.0,29.65,North,359,5.0,13.0,34,0.00,,,0.01,,2013-03-26 20:32:00,
2013-03-26 16:43:00,49.0,22.0,29.65,North,359,5.0,13.0,34,0.00,,,0.01,,2013-03-26 20:43:00,
2013-03-26 16:50:00,50.0,21.0,29.65,WNW,302,6.0,11.0,31,0.00,,,0.01,,2013-03-26 20:50:00,
2013-03-26 16:52:00,50.0,21.0,29.65,WNW,288,2.0,10.0,32,0.00,,,0.01,,2013-03-26 20:52:00,
2013-03-26 17:02:00,50.0,21.0,29.65,NNW,345,6.0,11.0,31,0.00,,,0.01,,2013-03-26 21:02:00,
2013-03-26 17:12:00,50.0,21.0,29.65,NNW,345,6.0,11.0,31,0.00,,,0.01,,2013-03-26 21:12:00,
2013-03-26 17:22:00,50.0,21.0,29.65,WNW,302,6.0,11.0,31,0.00,,,0.01,,2013-03-26 21:22:00,
2013-03-26 17:33:00,50.0,21.0,29.65,WNW,302,6.0,11.0,31,0.00,,,0.01,,2013-03-26 21:33:00,
2013-03-26 17:43:00,50.0,21.0,29.65,WNW,302,6.0,11.0,31,0.00,,,0.01,,2013-03-26 21:43:00,
2013-03-26 18:22:00,50.0,21.0,29.67,NW,305,2.0,10.0,31,0.00,,,0.01,,2013-03-26 22:22:00,
2013-03-26 18:33:00,50.0,21.0,29.67,NW,305,2.0,10.0,31,0.00,,,0.01,,2013-03-26 22:33:00,
2013-03-26 18:42:00,50.0,21.0,29.67,NW,305,2.0,10.0,31,0.00,,,0.01,,2013-03-26 22:42:00,
2013-03-26 18:52:00,50.0,21.0,29.67,NW,305,2.0,10.0,31,0.00,,,0.01,,2013-03-26 22:52:00,
2013-03-26 19:23:00,47.0,21.0,29.69,WNW,290,1.0,6.0,36,0.00,,,0.01,,2013-03-26 23:23:00,
2013-03-26 19:32:00,46.0,21.0,29.69,West,276,2.0,5.0,36,0.00,,,0.01,,2013-03-26 23:32:00,
2013-03-26 19:43:00,46.0,21.0,29.69,West,276,2.0,5.0,36,0.00,,,0.01,,2013-03-26 23:43:00,
2013-03-26 19:53:00,46.0,21.0,29.70,WNW,284,0.0,3.0,37,0.00,,,0.01,,2013-03-26 23:53:00,
2013-03-26 20:02:00,45.0,20.0,29.70,WSW,246,1.0,2.0,37,0.00,,,0.01,,2013-03-27 00:02:00,
2013-03-26 20:12:00,45.0,20.0,29.70,WSW,246,1.0,2.0,37,0.00,,,0.01,,2013-03-27 00:12:00,
2013-03-26 20:22:00,44.0,20.0,29.70,West,269,1.0,3.0,38,0.00,,,0.01,,2013-03-27 00:22:00,
2013-03-26 20:32:00,43.0,20.0,29.71,WSW,250,0.0,1.0,39,0.00,,,0.01,,2013-03-27 00:32:00,
2013-03-26 20:42:00,43.0,20.0,29.71,WSW,250,0.0,1.0,39,0.00,,,0.01,,2013-03-27 00:42:00,
2013-03-26 20:52:00,43.0,20.0,29.71,SW,222,1.0,2.0,40,0.00,,,0.01,,2013-03-27 00:52:00,
2013-03-26 21:02:00,42.0,19.0,29.71,West,276,0.0,2.0,40,0.00,,,0.01,,2013-03-27 01:02:00,
2013-03-26 21:12:00,42.0,19.0,29.71,West,276,0.0,2.0,40,0.00,,,0.01,,2013-03-27 01:12:00,
2013-03-26 21:23:00,42.0,21.0,29.72,WSW,257,0.0,3.0,42,0.00,,,0.01,,2013-03-27 01:23:00,
2013-03-26 21:33:00,42.0,21.0,29.72,West,259,2.0,4.0,43,0.00,,,0.01,,2013-03-27 01:33:00,
2013-03-26 21:42:00,42.0,21.0,29.72,West,259,2.0,4.0,43,0.00,,,0.01,,2013-03-27 01:42:00,
2013-03-26 21:53:00,41.0,21.0,29.73,WSW,255,1.0,4.0,44,0.00,,,0.01,,2013-03-27 01:53:00,
2013-03-26 22:03:00,41.0,21.0,29.73,West,273,2.0,7.0,45,0.00,,,0.01,,2013-03-27 02:03:00,
2013-03-26 22:12:00,41.0,21.0,29.73,West,273,2.0,7.0,45,0.00,,,0.01,,2013-03-27 02:12:00,
2013-03-26 22:22:00,41.0,22.0,29.74,WNW,302,1.0,6.0,46,0.00,,,0.01,,2013-03-27 02:22:00,
2013-03-26 22:32:00,40.0,21.0,29.74,NW,321,0.0,2.0,47,0.00,,,0.01,,2013-03-27 02:32:00,
2013-03-26 22:42:00,40.0,21.0,29.74,NW,321,0.0,2.0,47,0.00,,,0.01,,2013-03-27 02:42:00,
2013-03-26 22:52:00,40.0,22.0,29.74,WNW,284,1.0,3.0,48,0.00,,,0.01,,2013-03-27 02:52:00,
2013-03-26 23:02:00,40.0,22.0,29.75,NNW,327,1.0,2.0,49,0.00,,,0.01,,2013-03-27 03:02:00,
2013-03-26 23:12:00,40.0,22.0,29.75,NNW,327,1.0,2.0,49,0.00,,,0.01,,2013-03-27 03:12:00,
2013-03-26 23:22:00,39.0,21.0,29.75,NW,316,1.0,3.0,49,0.00,,,0.01,,2013-03-27 03:22:00,
2013-03-26 23:33:00,39.0,22.0,29.75,NW,306,1.0,2.0,51,0.00,,,0.01,,2013-03-27 03:33:00,
2013-03-26 23:42:00,39.0,22.0,29.75,NW,306,1.0,2.0,51,0.00,,,0.01,,2013-03-27 03:42:00,
2013-03-26 23:52:00,38.0,22.0,29.75,West,281,0.0,0.0,52,0.00,,,0.01,,2013-03-27 03:52:00,